Flag for Germany Weather past 2 weeks in Westerstede, Lower Saxony, Germany

Now
61 °F

Broken clouds.


Feels Like: 61 °F
Forecast: 48 / 63 °F
Wind: 9 mph from West

Location: Wittmundhaven

Current Time: Aug 23, 2014 at 5:20:23 PM

Latest Report: Aug 23, 2014 at 4:20 PM


Visibility: N/A

Pressure: 29.86 "Hg

Humidity: 63%

Dew point: 48 °F

Location of WesterstedeLocation

Historic Weather in Westerstede — Graph

°F

Westerstede temperature yesterday

Maximum temperature yesterday: 63 °F (at 3:20 PM)
Minimum temperature yesterday: 52 °F (at 12:20 AM)
Average temperature yesterday: 56 °F

Past Weeks' High & Low Weather Summary

 TemperatureHumidityPressure
High79 °F (Aug 10, 3:20 PM)100% (Aug 14, 11:20 PM)30.01 "Hg (Aug 14, 11:20 PM)
Low46 °F (Aug 21, 5:20 AM)40% (Aug 11, 4:20 PM)29.47 "Hg (Aug 10, 9:20 PM)
Average59 °F79%29.76 "Hg
* Reported Aug 8 3:20 PM — Aug 23 3:20 PM, Westerstede, Weather by CustomWeather, © 2014

Note: Actual official high and low records may vary slightly from our data, if they occured in-between our weather recording intervals... More about our weather records

Advertising

Westerstede weather history for previous 24 hours

 ConditionsComfort  
Time TempWeatherWind HumidityBarometerVisibility
3:20 PM
Aug 23
59 °FBroken clouds.15 mph63%29.86 "HgN/A
2:20 PM57 °FScattered clouds.16 mph67%29.86 "HgN/A
1:20 PM59 °FScattered clouds.14 mph72%29.86 "HgN/A
12:20 PM55 °FSprinkles. Broken clouds.20 mph72%29.86 "HgN/A
11:20 AM59 °FPassing clouds.13 mph68%29.86 "HgN/A
10:20 AM55 °FScattered clouds.14 mph72%29.83 "HgN/A
9:20 AM55 °FPassing clouds.9 mph82%29.83 "HgN/A
8:20 AM52 °FPassing clouds.9 mph88%29.83 "HgN/A
7:20 AM48 °FPassing clouds.6 mph94%29.83 "HgN/A
6:20 AM48 °FPassing clouds.5 mph94%29.80 "HgN/A
5:20 AM50 °FPassing clouds.5 mph94%29.80 "HgN/A
4:20 AM50 °FPassing clouds.7 mph100%29.80 "HgN/A
3:20 AM50 °FPassing clouds.6 mph94%29.80 "HgN/A
2:20 AM50 °FPassing clouds.6 mph94%29.80 "HgN/A
1:20 AM52 °FPassing clouds.7 mph94%29.80 "HgN/A
12:20 AM52 °FPassing clouds.7 mph100%29.80 "HgN/A
11:20 PM
Aug 22
54 °FSprinkles. Partly cloudy.8 mph94%29.80 "Hg5 mi
10:20 PM54 °FPartly cloudy.9 mph94%29.80 "HgN/A
9:20 PM54 °FLight rain. Broken clouds.8 mph94%29.80 "HgN/A
8:50 PM55 °FRain. Broken clouds.9 mph94%29.77 "HgN/A
8:20 PM55 °FLight rain. Partly sunny.10 mph94%29.77 "HgN/A
7:20 PM55 °FBroken clouds.8 mph88%29.77 "HgN/A
6:20 PM55 °FBroken clouds.13 mph88%29.77 "HgN/A
5:20 PM61 °FSprinkles. Broken clouds.17 mph68%29.77 "HgN/A
Weather by CustomWeather, © 2014

See weather overviewHow to use our weather pages